Weather History for Corvallis, OR

Change the Weather History Date:

Friday, July 12, 2013

  Actual Average Record
Temperature  
Mean Temperature 64 °F -  
Max Temperature 78 °F 80 °F 98 °F (1996)
Min Temperature 50 °F 52 °F 48 °F (2008)
Degree Days  
Heating Degree Days 1    
Growing Degree Days 14 (Base 50)    
Moisture  
Dew Point 45 °F    
Average Humidity 55    
Maximum Humidity 82    
Minimum Humidity 24    
Precipitation  
Precipitation 0.00 in - - ()
Sea Level Pressure  
Sea Level Pressure 30.04 in    
Wind  
Wind Speed 10 mph (WNW)    
Max Wind Speed 18 mph    
Max Gust Speed 24 mph    
Visibility 10 miles    
Events      
Averages and records for this station are not official NWS values.
T = Trace of Precipitation, MM = Missing Value Source: NWS Daily Summary

Daily Weather History Graph

Daily Weather History Graph

Search for Another Location

Airport:

Trip Planner

Search our weather history database for the weather conditions in past years. The results will help you decide how hot, cold, wet, or windy it might be!

Date:

Astronomy

Jul. 12, 2013 Rise Set
Actual Time 5:40 AM PDT 8:56 PM PDT
Civil Twilight 5:04 AM PDT 9:32 PM PDT
Nautical Twilight 4:18 AM PDT 10:18 PM PDT
Astronomical Twilight 3:20 AM PDT 11:15 PM PDT
Moon 10:14 AM PDT (7/12) 10:56 PM PDT (7/12)
Length of Visible Light 16h 28m
Length of Day
15h 16m
Waxing Crescent, 18% of the Moon is Illuminated
Jul 12
Waxing Crescent
Jul 15
First Quarter
Jul 22
Full
Jul 29
Last Quarter
Aug 6
New

Hourly Weather History & Observations

Time (PDT) Temp. Dew Point Humidity Pressure Visibility Wind Dir Wind Speed Gust Speed Precip Events Conditions
12:15 AM 57.2 °F 46.4 °F 67% 30.00 in 10.0 mi West 11.5 mph - N/A   Clear
12:35 AM 55.4 °F 46.4 °F 72% 30.01 in 10.0 mi West 11.5 mph - N/A   Clear
12:55 AM 55.4 °F 46.4 °F 72% 30.01 in 10.0 mi West 11.5 mph - N/A   Clear
1:15 AM 55.4 °F 46.4 °F 72% 30.01 in 10.0 mi West 10.4 mph - N/A   Clear
1:35 AM 53.6 °F 46.4 °F 77% 30.01 in 10.0 mi West 10.4 mph - N/A   Clear
1:55 AM 53.6 °F 46.4 °F 77% 30.01 in 10.0 mi West 10.4 mph - N/A   Clear
2:15 AM 53.6 °F 46.4 °F 77% 30.01 in 10.0 mi West 10.4 mph - N/A   Clear
2:35 AM 53.6 °F 44.6 °F 72% 30.02 in 10.0 mi West 9.2 mph - N/A   Clear
2:55 AM 53.6 °F 44.6 °F 72% 30.02 in 10.0 mi WNW 8.1 mph - N/A   Clear
3:15 AM 53.6 °F 44.6 °F 72% 30.02 in 10.0 mi West 9.2 mph - N/A   Clear
3:35 AM 53.6 °F 44.6 °F 72% 30.02 in 10.0 mi WNW 9.2 mph - N/A   Clear
3:55 AM 51.8 °F 44.6 °F 76% 30.02 in 10.0 mi WNW 9.2 mph - N/A   Clear
4:15 AM 51.8 °F 44.6 °F 76% 30.03 in 10.0 mi WNW 6.9 mph - N/A   Clear
4:35 AM 51.8 °F 44.6 °F 76% 30.03 in 10.0 mi West 8.1 mph - N/A   Clear
4:55 AM 51.8 °F 44.6 °F 76% 30.03 in 10.0 mi WNW 8.1 mph - N/A   Clear
5:15 AM 51.8 °F 44.6 °F 76% 30.03 in 10.0 mi West 9.2 mph - N/A   Clear
5:35 AM 50.0 °F 44.6 °F 82% 30.03 in 10.0 mi West 8.1 mph - N/A   Clear
5:55 AM 50.0 °F 44.6 °F 82% 30.03 in 10.0 mi WNW 5.8 mph - N/A   Clear
6:15 AM 50.0 °F 44.6 °F 82% 30.03 in 10.0 mi West 5.8 mph - N/A   Clear
6:35 AM 51.8 °F 44.6 °F 76% 30.03 in 10.0 mi West 6.9 mph - N/A   Clear
6:55 AM 51.8 °F 46.4 °F 82% 30.03 in 10.0 mi West 6.9 mph - N/A   Clear
7:15 AM 53.6 °F 44.6 °F 72% 30.03 in 10.0 mi West 6.9 mph - N/A   Clear
7:35 AM 55.4 °F 46.4 °F 72% 30.04 in 10.0 mi West 5.8 mph - N/A   Clear
7:55 AM 57.2 °F 46.4 °F 67% 30.04 in 10.0 mi WNW 5.8 mph - N/A   Clear
8:15 AM 59.0 °F 44.6 °F 59% 30.04 in 10.0 mi WNW 8.1 mph - N/A   Clear
8:35 AM 60.8 °F 44.6 °F 55% 30.04 in 10.0 mi West 4.6 mph - N/A   Clear
8:55 AM 60.8 °F 46.4 °F 59% 30.04 in 10.0 mi NNW 3.5 mph - N/A   Clear
9:15 AM 62.6 °F 44.6 °F 52% 30.03 in 10.0 mi NE 4.6 mph - N/A   Clear
9:35 AM 64.4 °F 46.4 °F 52% 30.04 in 10.0 mi NNE 5.8 mph - N/A   Clear
9:55 AM 66.2 °F 44.6 °F 46% 30.04 in 10.0 mi NE 5.8 mph - N/A   Clear
10:15 AM 66.2 °F 46.4 °F 49% 30.04 in 10.0 mi WSW 5.8 mph - N/A   Clear
10:35 AM 66.2 °F 46.4 °F 49% 30.04 in 10.0 mi NNW 6.9 mph - N/A   Clear
10:55 AM 68.0 °F 46.4 °F 46% 30.03 in 10.0 mi North 3.5 mph - N/A   Clear
11:15 AM 68.0 °F 46.4 °F 46% 30.04 in 10.0 mi WNW 8.1 mph - N/A   Clear
11:35 AM 69.8 °F 46.4 °F 43% 30.04 in 10.0 mi WNW 5.8 mph - N/A   Clear
11:55 AM 69.8 °F 44.6 °F 40% 30.04 in 10.0 mi West 9.2 mph - N/A   Clear
12:15 PM 71.6 °F 46.4 °F 41% 30.04 in 10.0 mi West 4.6 mph - N/A   Clear
12:35 PM 71.6 °F 46.4 °F 41% 30.04 in 10.0 mi NNW 6.9 mph - N/A   Clear
12:55 PM 73.4 °F 46.4 °F 38% 30.03 in 10.0 mi WSW 6.9 mph 16.1 mph N/A   Clear
1:15 PM 75.2 °F 48.2 °F 38% 30.03 in 10.0 mi NNW 11.5 mph - N/A   Clear
1:35 PM 73.4 °F 44.6 °F 36% 30.03 in 10.0 mi NNW 8.1 mph - N/A   Clear
1:55 PM 75.2 °F 44.6 °F 34% 30.03 in 10.0 mi NW 5.8 mph - N/A   Clear
2:15 PM 77.0 °F 44.6 °F 32% 30.03 in 10.0 mi North 8.1 mph - N/A   Clear
2:35 PM 78.8 °F 44.6 °F 30% 30.03 in 10.0 mi West 12.7 mph - N/A   Clear
2:55 PM 75.2 °F 44.6 °F 34% 30.03 in 10.0 mi WNW 11.5 mph 17.3 mph N/A   Clear
3:15 PM 75.2 °F 42.8 °F 31% 30.02 in 10.0 mi NNW 12.7 mph 16.1 mph N/A   Clear
3:35 PM 77.0 °F 44.6 °F 32% 30.02 in 10.0 mi WNW 12.7 mph - N/A   Clear
3:55 PM 77.0 °F 41.0 °F 28% 30.02 in 10.0 mi West 11.5 mph - N/A   Clear
4:15 PM 78.8 °F 39.2 °F 24% 30.02 in 10.0 mi WNW 15.0 mph - N/A   Clear
4:35 PM 78.8 °F 39.2 °F 24% 30.02 in 10.0 mi WNW 13.8 mph 17.3 mph N/A   Clear
4:55 PM 77.0 °F 41.0 °F 28% 30.02 in 10.0 mi WNW 16.1 mph - N/A   Clear
5:15 PM 77.0 °F 42.8 °F 29% 30.02 in 10.0 mi WNW 12.7 mph 18.4 mph N/A   Clear
5:35 PM 75.2 °F 42.8 °F 31% 30.02 in 10.0 mi West 17.3 mph - N/A   Clear
5:55 PM 75.2 °F 42.8 °F 31% 30.02 in 10.0 mi West 18.4 mph - N/A   Clear
6:15 PM 73.4 °F 42.8 °F 33% 30.02 in 10.0 mi West 13.8 mph 21.9 mph N/A   Clear
6:35 PM 73.4 °F 42.8 °F 33% 30.02 in 10.0 mi WNW 18.4 mph 24.2 mph N/A   Clear
6:55 PM 71.6 °F 42.8 °F 35% 30.03 in 10.0 mi West 16.1 mph 24.2 mph N/A   Clear
7:15 PM 69.8 °F 42.8 °F 38% 30.03 in 10.0 mi West 18.4 mph - N/A   Clear
7:35 PM 69.8 °F 42.8 °F 38% 30.04 in 10.0 mi WNW 15.0 mph - N/A   Clear
7:55 PM 66.2 °F 44.6 °F 46% 30.04 in 10.0 mi West 15.0 mph 24.2 mph N/A   Clear
8:15 PM 64.4 °F 44.6 °F 49% 30.05 in 10.0 mi West 16.1 mph - N/A   Clear
8:35 PM 62.6 °F 44.6 °F 52% 30.05 in 10.0 mi West 15.0 mph - N/A   Clear
8:55 PM 62.6 °F 44.6 °F 52% 30.06 in 10.0 mi West 12.7 mph - N/A   Clear
9:15 PM 60.8 °F 44.6 °F 55% 30.07 in 10.0 mi West 11.5 mph - N/A   Clear
9:35 PM 60.8 °F 44.6 °F 55% 30.08 in 10.0 mi West 11.5 mph - N/A   Clear
9:55 PM 59.0 °F 46.4 °F 63% 30.08 in 10.0 mi WNW 12.7 mph - N/A   Clear
10:15 PM 59.0 °F 46.4 °F 63% 30.09 in 10.0 mi West 13.8 mph - N/A   Clear
10:35 PM 57.2 °F 46.4 °F 67% 30.09 in 10.0 mi West 12.7 mph - N/A   Clear
10:55 PM 57.2 °F 46.4 °F 67% 30.10 in 10.0 mi West 10.4 mph - N/A   Clear
11:15 PM 57.2 °F 46.4 °F 67% 30.10 in 10.0 mi West 12.7 mph - N/A   Clear
11:35 PM 57.2 °F 46.4 °F 67% 30.10 in 10.0 mi West 11.5 mph - N/A   Clear
11:55 PM 55.4 °F 46.4 °F 72% 30.11 in 10.0 mi West 11.5 mph - N/A   Clear